GW7066 Weather Reports


time (UTC)temp
F
wind
direction
speed
knots
gust
knots
rain 1hr
in
rain 24hr
in
rain mn
in
humidity
%
barometer
mb
20260505150604 59 227 0.9 3.5 0.06 0.96 0.96 98 1013.8
20260505140520 58 321 1.7 2.6 0.22 0.90 0.90 97 1015.0
20260505124539 60 343 2.6 6.1 0.11 0.57 0.57 93 1015.6
20260505123604 62 241 3.5 10.4 0.04 0.50 0.50 91 1015.3
20260505122551 62 34 0.9 5.2 0.04 0.49 0.49 91 1013.8
20260505121534 62 52 0.9 3.5 0.11 0.49 0.49 91 1013.6
20260505120520 62 198 0.9 1.7 0.11 0.49 0.49 92 1013.9
20260505115602 63 320 0.0 1.7 0.09 0.46 0.46 90 1013.8
20260505114605 64 85 0.9 3.5 0.09 0.46 0.46 91 1014.1
20260505113550 64 262 0.9 3.5 0.09 0.46 0.46 90 1014.0
20260505112518 65 262 0.9 2.6 0.09 0.46 0.46 86 1014.0
20260505111605 68 321 0.9 3.5 0.01 0.38 0.38 79 1014.2
20260505110552 70 211 0.9 3.5 0.01 0.38 0.38 72 1014.1
20260505101536 71 147 1.7 4.3 0.00 0.37 0.37 68 1015.8
20260505100521 71 349 1.7 4.3 0.00 0.37 0.37 71 1015.9
20260505095603 70 316 0.9 2.6 0.00 0.37 0.37 70 1016.0
20260505094545 71 336 1.7 4.3 0.00 0.37 0.37 69 1016.4
20260505093532 72 24 1.7 3.5 0.00 0.37 0.37 67 1016.5
20260505092614 71 329 0.9 4.3 0.00 0.37 0.37 70 1016.8
20260505091600 73 350 2.6 5.2 0.00 0.37 0.37 68 1016.8
20260505090607 72 15 1.7 5.2 0.00 0.37 0.37 69 1016.9
20260505085555 71 310 1.7 3.5 0.00 0.37 0.37 71 1017.2
20260505084636 70 331 0.9 4.3 0.00 0.37 0.37 71 1017.5
20260505083617 69 131 1.7 4.3 0.00 0.37 0.37 74 1017.7
20260505082544 69 301 1.7 3.5 0.00 0.37 0.37 76 1017.8
20260505081527 68 147 0.9 3.5 0.00 0.37 0.37 77 1017.9
20260505080615 69 354 0.9 2.6 0.00 0.37 0.37 80 1018.1
20260505075559 67 21 0.0 1.7 0.00 0.37 0.37 84 1018.4
20260505074600 65 327 0.9 1.7 0.00 0.37 0.37 86 1018.6
20260505073527 64 208 0.0 1.7 0.00 0.37 0.37 90 1018.8
20260505072609 65 254 0.9 2.6 0.00 0.37 0.37 88 1018.8
20260505071551 65 296 0.0 1.7 0.00 0.37 0.37 89 1018.9
20260505070537 64 0.0 1.7 0.00 0.37 0.37 90 1019.0
20260505065524 62 0.0 0.9 0.00 0.37 0.37 92 1019.2
20260505064612 63 293 0.0 1.7 0.00 0.37 0.37 91 1019.2
20260505063559 61 192 0.0 1.7 0.00 0.37 0.37 98 1019.2
20260505062604 59 242 0.9 1.7 0.00 0.37 0.37 98 1019.1
20260505061531 59 230 0.9 1.7 0.00 0.37 0.37 98 1019.1
20260505060519 59 244 0.9 1.7 0.00 0.37 0.37 98 1019.0
20260505055604 59 200 0.0 1.7 0.00 0.37 0.37 98 1019.0
20260505054551 58 232 0.9 2.6 0.00 0.37 0.37 98 1019.0
20260505053535 58 210 1.7 1.7 0.00 0.37 0.37 98 1019.0
20260505052623 58 244 0.0 1.7 0.00 0.37 0.37 98 1019.0
20260505051607 58 271 0.9 1.7 0.00 0.37 0.37 98 1019.1
20260505050611 58 194 0.9 3.5 0.00 0.37 0.37 98 1018.9
20260505041539 58 270 0.9 2.6 0.11 0.37 0.37 97 1019.2
20260505040524 58 236 0.9 2.6 0.11 0.37 0.37 97 1018.9
20260505035613 58 185 0.0 1.7 0.13 0.36 0.36 97 1018.9
20260505034554 58 294 0.9 2.6 0.13 0.34 0.34 97 1019.2
20260505033555 58 279 1.7 2.6 0.10 0.30 0.30 97 1019.5
20260505032521 58 237 0.9 1.7 0.07 0.26 0.26 97 1019.2
20260505031603 58 224 1.7 1.7 0.06 0.26 0.26 97 1019.2
20260505030545 58 245 0.0 1.7 0.08 0.26 0.26 97 1019.3
20260505025531 58 262 0.9 2.6 0.07 0.23 0.23 97 1019.7
20260505024519 58 326 0.0 1.7 0.05 0.21 0.21 97 1019.3
20260505023607 58 300 0.0 0.9 0.05 0.20 0.20 96 1018.8
20260505022553 58 282 0.9 1.7 0.06 0.20 0.20 96 1018.9
20260505021535 58 233 1.7 2.6 0.20 0.20 0.20 96 1019.4
20260505020541 58 296 0.9 3.5 0.17 0.17 0.17 96 1020.2
20260505015609 58 306 1.7 4.3 0.17 0.17 0.17 96 1020.5
20260505014556 58 303 1.7 5.2 0.16 0.16 0.16 96 1020.6
20260505013544 58 309 0.9 3.5 0.15 0.15 0.15 95 1020.9
20260505012525 59 9 1.7 5.2 0.14 0.14 0.14 93 1020.6
20260505011629 61 296 1.7 3.5 0.00 0.00 0.00 86 1020.4
20260505010554 60 231 0.9 1.7 0.00 0.00 0.00 87 1018.9
20260505005541 60 239 0.0 1.7 0.00 0.00 0.00 87 1019.0
20260505004528 59 213 0.9 0.9 0.00 0.00 0.00 87 1018.9
20260505003610 59 212 0.9 1.7 0.00 0.00 0.00 89 1019.2
20260505002557 59 225 0.9 1.7 0.00 0.00 0.00 90 1019.2
20260505001605 59 224 0.9 1.7 0.00 0.00 0.00 90 1019.3
20260505000531 59 231 1.7 1.7 0.00 0.00 0.00 91 1019.4
20260504235519 59 223 0.9 1.7 0.00 0.00 0.00 91 1019.5
20260504234607 59 231 0.9 1.7 0.00 0.00 0.00 90 1019.4
20260504233553 59 0.0 1.7 0.00 0.00 0.00 90 1019.5
20260504232535 59 238 0.9 1.7 0.00 0.00 0.00 90 1019.5
20260504231521 59 208 0.9 1.7 0.00 0.00 0.00 90 1019.4
20260504230609 60 222 0.9 2.6 0.00 0.00 0.00 89 1019.5
20260504225556 60 210 0.9 1.7 0.00 0.00 0.00 89 1019.7
20260504224543 60 226 0.9 2.6 0.00 0.00 0.00 90 1019.8
20260504223527 60 227 0.9 1.7 0.00 0.00 0.00 90 1019.8
20260504222615 60 228 0.9 1.7 0.00 0.00 0.00 90 1020.0
20260504221558 60 219 0.9 1.7 0.00 0.00 0.00 90 1020.2
20260504220545 60 225 0.9 1.7 0.00 0.00 0.00 89 1020.3
20260504215532 60 216 0.9 1.7 0.00 0.00 0.00 89 1020.2
20260504214620 60 201 0.9 1.7 0.00 0.00 0.00 89 1020.3
20260504213605 60 226 0.9 1.7 0.00 0.00 0.00 88 1020.5
20260504212552 60 222 0.9 1.7 0.00 0.00 0.00 88 1020.7
20260504211555 60 220 0.9 2.6 0.00 0.00 0.00 88 1020.9
20260504210522 60 223 0.9 1.7 0.00 0.00 0.00 88 1020.9
20260504205608 61 0.0 1.7 0.00 0.00 0.00 87 1021.0
20260504204556 61 234 0.9 1.7 0.00 0.00 0.00 86 1021.0
20260504203543 61 227 0.9 1.7 0.00 0.00 0.00 86 1021.1
20260504202529 61 215 0.9 1.7 0.00 0.00 0.00 85 1021.2
20260504201618 61 207 0.0 1.7 0.00 0.00 0.00 86 1021.4
20260504200604 61 233 0.9 1.7 0.00 0.00 0.00 86 1021.4
20260504195612 61 224 0.0 1.7 0.00 0.00 0.00 86 1021.5
20260504194559 62 234 0.9 1.7 0.00 0.00 0.00 85 1021.7
20260504193526 62 234 0.9 1.7 0.00 0.00 0.00 84 1021.5
20260504192608 62 234 0.0 0.9 0.00 0.00 0.00 83 1021.5
20260504191553 63 202 0.0 1.7 0.00 0.00 0.00 82 1021.2
20260504190543 63 201 0.0 1.7 0.00 0.00 0.00 82 1021.2
20260504185525 63 208 0.9 1.7 0.00 0.00 0.00 81 1021.3
20260504184605 63 0.0 1.7 0.00 0.00 0.00 80 1021.4
20260504183551 64 222 0.9 1.7 0.00 0.00 0.00 79 1021.4
20260504182555 64 206 0.0 1.7 0.00 0.00 0.00 78 1021.4
20260504181619 64 231 0.0 0.9 0.00 0.00 0.00 77 1021.5
20260504180606 64 208 0.0 1.7 0.00 0.00 0.00 76 1021.4
20260504175547 64 0.0 1.7 0.00 0.00 0.00 76 1021.3
20260504174532 64 237 0.0 1.7 0.00 0.00 0.00 76 1021.2
20260504173615 64 236 0.0 0.9 0.00 0.00 0.00 76 1021.3
20260504172557 64 196 0.0 1.7 0.00 0.00 0.00 75 1021.1
20260504171536 64 0.0 0.9 0.00 0.00 0.00 75 1021.1
20260504170619 65 0.0 0.9 0.00 0.00 0.00 74 1021.2